Weather History for Rolla, ND

Change the Weather History Date:

Friday, November 23, 2012

  Actual Average (KRUG) Record (KRUG)
Temperature  
Mean Temperature 0 °F -  
Max Temperature 6 °F 26 °F 51 °F (1984)
Min Temperature -5 °F 13 °F -18 °F (2013)
Degree Days  
Heating Degree Days 64    
Moisture  
Dew Point -1 °F    
Average Humidity 90    
Maximum Humidity 92    
Minimum Humidity 78    
Precipitation  
Precipitation 0.01 in - - ()
Sea Level Pressure  
Sea Level Pressure 30.39 in    
Wind  
Wind Speed 10 mph (NW)    
Max Wind Speed 16 mph    
Max Gust Speed 23 mph    
Visibility 9 miles    
Events Rain , Snow    
Averages and records for this station are not official NWS values.
T = Trace of Precipitation, MM = Missing Value Source: NWS Daily Summary

Daily Weather History Graph

Daily Weather History Graph

Search for Another Location

Airport:

Trip Planner

Search our weather history database for the weather conditions in past years. The results will help you decide how hot, cold, wet, or windy it might be!

Date:

Astronomy

Nov. 23, 2012 Rise Set
Actual Time 8:00 AM CST 4:49 PM CST
Civil Twilight 7:24 AM CST 5:24 PM CST
Nautical Twilight 6:45 AM CST 6:03 PM CST
Astronomical Twilight 6:08 AM CST 6:41 PM CST
Moon 2:22 PM CST (11/23) 3:00 AM CST (11/23)
Length of Visible Light 9h 59m
Length of Day
8h 48m
Waxing Gibbous, 80% of the Moon is Illuminated
Nov 23
Waxing Gibbous
Nov 28
Full
Dec 6
Last Quarter
Dec 13
New
Dec 19
First Quarter

Hourly Weather History & Observations

Time (CST) Temp. Windchill Dew Point Humidity Pressure Visibility Wind Dir Wind Speed Gust Speed Precip Events Conditions
12:15 AM 6.8 °F -10.7 °F 5.0 °F 92% 30.35 in 4.0 mi WNW 15.0 mph - N/A Snow Light Snow
12:35 AM 6.8 °F -11.3 °F 3.2 °F 85% 30.36 in 3.0 mi WNW 16.1 mph - N/A Snow Light Snow
12:55 AM 5.0 °F -13.6 °F 3.2 °F 92% 30.36 in 4.0 mi WNW 16.1 mph 23.0 mph N/A Snow Light Snow
1:15 AM 5.0 °F -13.6 °F 3.2 °F 92% 30.37 in 3.0 mi WNW 16.1 mph 23.0 mph N/A Snow Light Snow
1:35 AM 5.0 °F -13.0 °F 3.2 °F 92% 30.38 in 5.0 mi NW 15.0 mph - N/A   Overcast
1:55 AM 5.0 °F -13.6 °F 3.2 °F 92% 30.38 in 7.0 mi NW 16.1 mph - N/A   Overcast
2:15 AM 5.0 °F -12.3 °F 3.2 °F 92% 30.39 in 8.0 mi NW 13.8 mph - N/A   Overcast
2:35 AM 5.0 °F -12.3 °F 3.2 °F 92% 30.40 in 8.0 mi NW 13.8 mph - N/A   Overcast
2:55 AM 5.0 °F -12.3 °F 1.4 °F 85% 30.41 in 10.0 mi WNW 13.8 mph 17.3 mph N/A   Overcast
3:15 AM 5.0 °F -11.6 °F 1.4 °F 85% 30.42 in 10.0 mi NW 12.7 mph - N/A   Overcast
3:35 AM 5.0 °F -10.8 °F 1.4 °F 85% 30.42 in 10.0 mi WNW 11.5 mph - N/A   Overcast
3:55 AM 5.0 °F -10.8 °F 1.4 °F 85% 30.41 in 10.0 mi WNW 11.5 mph - N/A   Overcast
4:15 AM 5.0 °F -10.0 °F 3.2 °F 92% 30.41 in 10.0 mi WNW 10.4 mph - N/A   Overcast
4:35 AM 5.0 °F -12.3 °F 3.2 °F 92% 30.41 in 10.0 mi NW 13.8 mph - N/A Snow Light Snow
4:55 AM 5.0 °F -13.0 °F 1.4 °F 85% 30.41 in 5.0 mi NW 15.0 mph - N/A Rain Light Freezing Rain
5:15 AM 5.0 °F -10.0 °F 1.4 °F 85% 30.42 in 4.0 mi NW 10.4 mph 16.1 mph N/A Rain Light Freezing Rain
5:35 AM 3.2 °F -15.3 °F 1.4 °F 92% 30.43 in 2.5 mi NW 15.0 mph - 0.01 in Snow Light Snow
5:55 AM 3.2 °F -12.2 °F 1.4 °F 92% 30.44 in 5.0 mi NW 10.4 mph - 0.01 in Snow Light Snow
6:15 AM 3.2 °F -14.6 °F 1.4 °F 92% 30.44 in 3.0 mi NW 13.8 mph - N/A Snow Light Snow
6:35 AM 1.4 °F -15.3 °F -0.4 °F 92% 30.44 in 9.0 mi WNW 11.5 mph - N/A   Mostly Cloudy
6:55 AM 1.4 °F -16.1 °F -0.4 °F 92% 30.44 in 10.0 mi NW 12.7 mph - N/A   Overcast
7:15 AM 1.4 °F -12.5 °F -0.4 °F 92% 30.44 in 10.0 mi WNW 8.1 mph - N/A   Overcast
7:35 AM -0.4 °F -14.7 °F -2.2 °F 92% 30.44 in 10.0 mi NW 8.1 mph - N/A   Mostly Cloudy
7:55 AM -0.4 °F -14.7 °F -2.2 °F 92% 30.44 in 10.0 mi WNW 8.1 mph - N/A   Overcast
8:15 AM -0.4 °F -12.0 °F -2.2 °F 92% 30.43 in 10.0 mi WNW 5.8 mph - N/A   Scattered Clouds
8:35 AM -0.4 °F -12.0 °F -2.2 °F 92% 30.45 in 10.0 mi West 5.8 mph - N/A   Scattered Clouds
8:55 AM -0.4 °F -15.7 °F -2.2 °F 92% 30.44 in 10.0 mi NNW 9.2 mph - N/A   Overcast
9:15 AM -0.4 °F -14.7 °F -2.2 °F 92% 30.45 in 10.0 mi WNW 8.1 mph - N/A   Mostly Cloudy
9:35 AM 1.4 °F -13.5 °F -2.2 °F 85% 30.45 in 10.0 mi NW 9.2 mph - N/A   Overcast
9:55 AM 1.4 °F -13.5 °F -0.4 °F 92% 30.46 in 10.0 mi NW 9.2 mph - N/A Snow Light Snow
10:15 AM 1.4 °F -11.3 °F -0.4 °F 92% 30.47 in 5.0 mi NW 6.9 mph - N/A Snow Light Snow
10:35 AM 1.4 °F -8.3 °F -0.4 °F 92% 30.46 in 10.0 mi NW 4.6 mph - N/A   Overcast
10:55 AM 1.4 °F -14.5 °F -0.4 °F 92% 30.46 in 10.0 mi North 10.4 mph - N/A   Mostly Cloudy
11:15 AM 1.4 °F -13.5 °F -0.4 °F 92% 30.46 in 10.0 mi NNW 9.2 mph - N/A   Mostly Cloudy
11:35 AM 1.4 °F -14.5 °F -0.4 °F 92% 30.46 in 10.0 mi NNW 10.4 mph - N/A   Mostly Cloudy
11:55 AM 1.4 °F -16.1 °F -0.4 °F 92% 30.46 in 10.0 mi North 12.7 mph - N/A   Mostly Cloudy
12:15 PM 1.4 °F -16.1 °F -0.4 °F 92% 30.45 in 10.0 mi NNW 12.7 mph - N/A   Scattered Clouds
12:35 PM 1.4 °F -16.1 °F -0.4 °F 92% 30.43 in 10.0 mi North 12.7 mph - N/A   Mostly Cloudy
12:55 PM 1.4 °F -14.5 °F -0.4 °F 92% 30.43 in 10.0 mi North 10.4 mph - N/A   Mostly Cloudy
1:15 PM 1.4 °F -12.5 °F -0.4 °F 92% 30.43 in 10.0 mi North 8.1 mph - N/A   Partly Cloudy
1:35 PM 1.4 °F -11.3 °F -0.4 °F 92% 30.42 in 10.0 mi North 6.9 mph - N/A   Clear
1:55 PM 1.4 °F -9.9 °F -0.4 °F 92% 30.42 in 10.0 mi North 5.8 mph - N/A   Clear
2:15 PM 1.4 °F -9.9 °F -0.4 °F 92% 30.42 in 10.0 mi North 5.8 mph - N/A   Clear
2:35 PM 1.4 °F -9.9 °F -0.4 °F 92% 30.42 in 10.0 mi North 5.8 mph - N/A   Partly Cloudy
2:55 PM 1.4 °F -8.3 °F -0.4 °F 92% 30.41 in 10.0 mi North 4.6 mph - N/A   Clear
3:15 PM 1.4 °F -8.3 °F -0.4 °F 92% 30.41 in 10.0 mi North 4.6 mph - N/A   Clear
3:35 PM 1.4 °F -8.3 °F -0.4 °F 92% 30.41 in 10.0 mi North 4.6 mph - N/A   Clear
3:55 PM 1.4 °F - -0.4 °F 92% 30.40 in 10.0 mi Calm Calm - N/A   Clear
4:15 PM 1.4 °F - -0.4 °F 92% 30.39 in 10.0 mi Calm Calm - N/A   Clear
4:35 PM 1.4 °F - -0.4 °F 92% 30.40 in 10.0 mi Calm Calm - N/A   Clear
4:55 PM -0.4 °F - -2.2 °F 92% 30.40 in 10.0 mi Calm Calm - N/A   Clear
5:15 PM -0.4 °F - -2.2 °F 92% 30.39 in 10.0 mi Calm Calm - N/A   Clear
5:35 PM -2.2 °F - -4.0 °F 92% 30.38 in 10.0 mi Calm Calm - N/A   Clear
5:55 PM -4.0 °F - -5.8 °F 92% 30.38 in 10.0 mi Calm Calm - N/A   Clear
6:15 PM -4.0 °F - -7.6 °F 85% 30.37 in 10.0 mi Calm Calm - N/A   Clear
6:35 PM -2.2 °F - -5.8 °F 85% 30.36 in 10.0 mi Calm Calm - N/A   Clear
6:55 PM -2.2 °F - -5.8 °F 85% 30.35 in 10.0 mi Calm Calm - N/A   Clear
7:15 PM -4.0 °F - -7.6 °F 85% 30.34 in 10.0 mi Calm Calm - N/A   Clear
7:35 PM -4.0 °F - -9.4 °F 78% 30.34 in 10.0 mi Calm Calm - N/A   Clear
7:55 PM -4.0 °F -12.4 °F -9.4 °F 78% 30.34 in 10.0 mi WSW 3.5 mph - N/A   Clear
8:15 PM -5.8 °F -14.5 °F -9.4 °F 84% 30.33 in 10.0 mi SSW 3.5 mph - N/A   Clear
8:35 PM -5.8 °F -18.4 °F -9.4 °F 84% 30.32 in 10.0 mi SSW 5.8 mph - N/A   Clear
8:55 PM -4.0 °F -16.3 °F -7.6 °F 85% 30.31 in 10.0 mi South 5.8 mph - N/A   Clear
9:15 PM -2.2 °F -15.6 °F -5.8 °F 85% 30.30 in 10.0 mi South 6.9 mph - N/A   Clear
9:35 PM -2.2 °F -15.6 °F -4.0 °F 92% 30.29 in 10.0 mi South 6.9 mph - N/A   Clear
9:55 PM -2.2 °F -15.6 °F -4.0 °F 92% 30.28 in 10.0 mi South 6.9 mph - N/A   Clear
10:15 PM -0.4 °F -14.7 °F -2.2 °F 92% 30.27 in 10.0 mi South 8.1 mph - N/A   Clear
10:35 PM -0.4 °F -14.7 °F -2.2 °F 92% 30.26 in 10.0 mi South 8.1 mph - N/A   Clear
10:55 PM -0.4 °F -13.4 °F -4.0 °F 85% 30.25 in 10.0 mi South 6.9 mph - N/A   Clear
11:15 PM -0.4 °F -15.7 °F -4.0 °F 85% 30.24 in 10.0 mi South 9.2 mph - N/A   Clear
11:35 PM -0.4 °F -15.7 °F -4.0 °F 85% 30.23 in 10.0 mi South 9.2 mph - N/A   Scattered Clouds
11:55 PM -0.4 °F -14.7 °F -4.0 °F 85% 30.23 in 10.0 mi South 8.1 mph - N/A   Overcast